Time,TemperatureF,DewpointF,PressureIn,WindDirection,WindDirectionDegrees,WindSpeedMPH,WindSpeedGustMPH,Humidity,HourlyPrecipIn,Conditions,Clouds,dailyrainin,SoftwareType,DateUTC
2013-08-20 00:11:00,65.1,62.7,29.86,South,180,0.0,-999.0,92,-99.99,,,0.00,Acu-Link.com,2013-08-20 04:11:00,
2013-08-20 00:27:00,65.1,62.7,29.87,South,180,0.0,-999.0,92,-99.99,,,0.00,Acu-Link.com,2013-08-20 04:27:00,
2013-08-20 00:42:00,64.9,62.5,29.86,South,180,0.0,-999.0,92,-99.99,,,0.00,Acu-Link.com,2013-08-20 04:42:00,
2013-08-20 00:57:00,64.8,62.4,29.86,South,180,0.0,-999.0,92,-99.99,,,0.00,Acu-Link.com,2013-08-20 04:57:00,
2013-08-20 01:13:00,64.6,62.2,29.86,NNE,22,0.0,-999.0,92,-99.99,,,0.00,Acu-Link.com,2013-08-20 05:13:00,
2013-08-20 01:28:00,64.2,61.8,29.85,NNE,22,0.0,-999.0,92,-99.99,,,0.00,Acu-Link.com,2013-08-20 05:28:00,
2013-08-20 01:43:00,64.2,61.8,29.85,West,270,0.0,-999.0,92,-99.99,,,0.00,Acu-Link.com,2013-08-20 05:43:00,
2013-08-20 01:59:00,64.0,61.6,29.85,West,270,0.0,-999.0,92,-99.99,,,0.00,Acu-Link.com,2013-08-20 05:59:00,
2013-08-20 02:14:00,63.9,61.5,29.85,West,270,0.0,-999.0,92,-99.99,,,0.00,Acu-Link.com,2013-08-20 06:14:00,
2013-08-20 02:29:00,63.5,61.1,29.84,West,270,0.0,-999.0,92,-99.99,,,0.00,Acu-Link.com,2013-08-20 06:29:00,
2013-08-20 02:44:00,63.5,61.1,29.84,West,270,0.0,-999.0,92,-99.99,,,0.00,Acu-Link.com,2013-08-20 06:44:00,
2013-08-20 02:59:00,63.1,60.7,29.84,West,270,0.0,-999.0,92,-99.99,,,0.00,Acu-Link.com,2013-08-20 06:59:00,
2013-08-20 03:15:00,63.1,60.7,29.84,West,270,0.0,-999.0,92,-99.99,,,0.00,Acu-Link.com,2013-08-20 07:15:00,
2013-08-20 03:30:00,62.8,60.4,29.84,West,270,0.0,-999.0,92,-99.99,,,0.00,Acu-Link.com,2013-08-20 07:30:00,
2013-08-20 03:45:00,63.0,60.6,29.84,West,270,0.0,-999.0,92,-99.99,,,0.00,Acu-Link.com,2013-08-20 07:45:00,
2013-08-20 04:01:00,63.0,60.6,29.84,West,270,0.0,-999.0,92,-99.99,,,0.00,Acu-Link.com,2013-08-20 08:01:00,
2013-08-20 04:16:00,62.8,60.4,29.83,West,270,0.0,-999.0,92,-99.99,,,0.00,Acu-Link.com,2013-08-20 08:16:00,
2013-08-20 04:31:00,62.8,60.4,29.84,West,270,0.0,-999.0,92,-99.99,,,0.00,Acu-Link.com,2013-08-20 08:31:00,
2013-08-20 04:46:00,63.0,60.6,29.83,West,270,0.0,-999.0,92,-99.99,,,0.00,Acu-Link.com,2013-08-20 08:46:00,
2013-08-20 05:02:00,63.0,60.6,29.84,West,270,0.0,-999.0,92,-99.99,,,0.00,Acu-Link.com,2013-08-20 09:02:00,
2013-08-20 05:17:00,62.8,60.4,29.84,West,270,0.0,-999.0,92,-99.99,,,0.00,Acu-Link.com,2013-08-20 09:17:00,
2013-08-20 05:32:00,62.6,60.2,29.84,West,270,0.0,-999.0,92,-99.99,,,0.00,Acu-Link.com,2013-08-20 09:32:00,
2013-08-20 05:47:00,62.6,60.2,29.84,West,270,0.0,-999.0,92,-99.99,,,0.00,Acu-Link.com,2013-08-20 09:47:00,
2013-08-20 06:02:00,62.4,60.0,29.84,West,270,0.0,-999.0,92,-99.99,,,0.00,Acu-Link.com,2013-08-20 10:02:00,
2013-08-20 06:18:00,62.4,60.0,29.84,West,270,0.0,-999.0,92,-99.99,,,0.00,Acu-Link.com,2013-08-20 10:18:00,
2013-08-20 06:33:00,62.2,59.8,29.85,West,270,0.0,-999.0,92,-99.99,,,0.00,Acu-Link.com,2013-08-20 10:33:00,
2013-08-20 06:48:00,62.2,59.8,29.85,West,270,0.0,-999.0,92,-99.99,,,0.00,Acu-Link.com,2013-08-20 10:48:00,
2013-08-20 07:04:00,62.1,59.7,29.86,West,270,0.0,-999.0,92,-99.99,,,0.00,Acu-Link.com,2013-08-20 11:04:00,
2013-08-20 07:19:00,61.9,59.5,29.85,West,270,0.0,-999.0,92,-99.99,,,0.00,Acu-Link.com,2013-08-20 11:19:00,
2013-08-20 07:34:00,62.1,59.7,29.86,West,270,0.0,-999.0,92,-99.99,,,0.00,Acu-Link.com,2013-08-20 11:34:00,
2013-08-20 07:50:00,62.2,59.8,29.86,West,270,0.0,-999.0,92,-99.99,,,0.00,Acu-Link.com,2013-08-20 11:50:00,
2013-08-20 08:05:00,62.6,60.2,29.86,West,270,0.0,-999.0,92,-99.99,,,0.00,Acu-Link.com,2013-08-20 12:05:00,
2013-08-20 08:20:00,62.6,60.2,29.87,West,270,0.0,-999.0,92,-99.99,,,0.00,Acu-Link.com,2013-08-20 12:20:00,
2013-08-20 08:35:00,62.8,60.4,29.87,West,270,0.0,-999.0,92,-99.99,,,0.00,Acu-Link.com,2013-08-20 12:35:00,
2013-08-20 08:50:00,63.5,61.1,29.88,West,270,0.0,-999.0,92,-99.99,,,0.00,Acu-Link.com,2013-08-20 12:50:00,
2013-08-20 09:05:00,64.0,61.6,29.88,West,270,0.0,-999.0,92,-99.99,,,0.00,Acu-Link.com,2013-08-20 13:05:00,
2013-08-20 09:20:00,64.4,62.0,29.89,West,270,0.0,-999.0,92,-99.99,,,0.00,Acu-Link.com,2013-08-20 13:20:00,
2013-08-20 09:36:00,65.1,62.7,29.89,West,270,0.0,-999.0,92,-99.99,,,0.00,Acu-Link.com,2013-08-20 13:36:00,
2013-08-20 09:51:00,65.7,63.3,29.89,West,270,0.0,-999.0,92,-99.99,,,0.00,Acu-Link.com,2013-08-20 13:51:00,
2013-08-20 10:06:00,66.0,63.6,29.90,West,270,0.0,-999.0,92,-99.99,,,0.00,Acu-Link.com,2013-08-20 14:06:00,
2013-08-20 10:22:00,66.2,63.8,29.91,West,270,0.0,-999.0,92,-99.99,,,0.00,Acu-Link.com,2013-08-20 14:22:00,
2013-08-20 10:37:00,66.6,64.2,29.91,West,270,0.0,-999.0,92,-99.99,,,0.00,Acu-Link.com,2013-08-20 14:37:00,
2013-08-20 10:52:00,66.6,63.9,29.92,West,270,0.0,-999.0,91,-99.99,,,0.00,Acu-Link.com,2013-08-20 14:52:00,
2013-08-20 11:08:00,66.7,63.7,29.92,NW,315,0.0,-999.0,90,-99.99,,,0.00,Acu-Link.com,2013-08-20 15:08:00,
2013-08-20 11:23:00,66.9,63.9,29.92,NW,315,0.0,-999.0,90,-99.99,,,0.00,Acu-Link.com,2013-08-20 15:23:00,
2013-08-20 11:38:00,67.3,64.3,29.92,NW,315,0.0,-999.0,90,-99.99,,,0.00,Acu-Link.com,2013-08-20 15:38:00,
2013-08-20 11:53:00,67.6,64.6,29.93,West,270,0.0,-999.0,90,-99.99,,,0.00,Acu-Link.com,2013-08-20 15:53:00,
2013-08-20 12:08:00,67.8,64.8,29.92,NE,45,0.0,-999.0,90,-99.99,,,0.00,Acu-Link.com,2013-08-20 16:08:00,
2013-08-20 12:24:00,69.1,65.7,29.92,ENE,67,0.0,-999.0,89,-99.99,,,0.00,Acu-Link.com,2013-08-20 16:24:00,
2013-08-20 12:39:00,69.6,66.2,29.92,NE,45,0.0,-999.0,89,-99.99,,,0.00,Acu-Link.com,2013-08-20 16:39:00,
2013-08-20 12:54:00,70.2,66.5,29.92,SSW,202,0.0,-999.0,88,-99.99,,,0.00,Acu-Link.com,2013-08-20 16:54:00,
2013-08-20 13:10:00,70.5,66.4,29.92,ESE,112,0.0,-999.0,87,-99.99,,,0.00,Acu-Link.com,2013-08-20 17:10:00,
2013-08-20 13:25:00,71.1,67.0,29.92,ESE,112,0.0,-999.0,87,-99.99,,,0.00,Acu-Link.com,2013-08-20 17:25:00,
2013-08-20 13:40:00,71.1,67.0,29.92,ENE,67,0.0,-999.0,87,-99.99,,,0.00,Acu-Link.com,2013-08-20 17:40:00,
2013-08-20 13:56:00,71.4,67.3,29.91,East,90,0.0,-999.0,87,-99.99,,,0.00,Acu-Link.com,2013-08-20 17:56:00,
2013-08-20 14:11:00,71.1,67.0,29.91,East,90,0.0,-999.0,87,-99.99,,,0.00,Acu-Link.com,2013-08-20 18:11:00,
2013-08-20 14:26:00,70.9,67.2,29.90,SSW,202,0.0,-999.0,88,-99.99,,,0.00,Acu-Link.com,2013-08-20 18:26:00,
2013-08-20 14:41:00,70.9,67.2,29.90,NE,45,0.0,-999.0,88,-99.99,,,0.00,Acu-Link.com,2013-08-20 18:41:00,
2013-08-20 14:56:00,70.7,67.0,29.90,ENE,67,0.0,-999.0,88,-99.99,,,0.00,Acu-Link.com,2013-08-20 18:56:00,
2013-08-20 15:11:00,70.7,67.0,29.89,ENE,67,0.0,-999.0,88,-99.99,,,0.00,Acu-Link.com,2013-08-20 19:11:00,
2013-08-20 15:27:00,70.9,67.2,29.88,ENE,67,0.0,-999.0,88,-99.99,,,0.00,Acu-Link.com,2013-08-20 19:27:00,
2013-08-20 15:42:00,71.6,67.9,29.87,ENE,67,0.0,-999.0,88,-99.99,,,0.00,Acu-Link.com,2013-08-20 19:42:00,
2013-08-20 15:57:00,71.6,67.9,29.87,ENE,67,0.0,-999.0,88,-99.99,,,0.00,Acu-Link.com,2013-08-20 19:57:00,
2013-08-20 16:13:00,71.4,67.7,29.86,ENE,67,0.0,-999.0,88,-99.99,,,0.00,Acu-Link.com,2013-08-20 20:13:00,
2013-08-20 16:28:00,71.2,67.5,29.86,ENE,67,0.0,-999.0,88,-99.99,,,0.00,Acu-Link.com,2013-08-20 20:28:00,
2013-08-20 16:43:00,71.4,67.7,29.86,ENE,67,0.0,-999.0,88,-99.99,,,0.00,Acu-Link.com,2013-08-20 20:43:00,
2013-08-20 16:58:00,71.8,68.0,29.86,ENE,67,0.0,-999.0,88,-99.99,,,0.00,Acu-Link.com,2013-08-20 20:58:00,
2013-08-20 17:14:00,71.8,68.0,29.86,East,90,0.0,-999.0,88,-99.99,,,0.00,Acu-Link.com,2013-08-20 21:14:00,
2013-08-20 17:29:00,72.5,68.7,29.86,East,90,0.0,-999.0,88,-99.99,,,0.00,Acu-Link.com,2013-08-20 21:29:00,
2013-08-20 17:44:00,72.5,68.7,29.86,NE,45,0.0,-999.0,88,-99.99,,,0.00,Acu-Link.com,2013-08-20 21:44:00,
2013-08-20 17:59:00,72.5,68.7,29.86,NE,45,0.0,-999.0,88,-99.99,,,0.00,Acu-Link.com,2013-08-20 21:59:00,
2013-08-20 18:14:00,72.7,68.9,29.86,East,90,0.0,-999.0,88,-99.99,,,0.00,Acu-Link.com,2013-08-20 22:14:00,
2013-08-20 18:30:00,72.7,68.6,29.86,East,90,0.0,-999.0,87,-99.99,,,0.00,Acu-Link.com,2013-08-20 22:30:00,
2013-08-20 18:45:00,72.3,68.2,29.86,East,90,0.0,-999.0,87,-99.99,,,0.00,Acu-Link.com,2013-08-20 22:45:00,
2013-08-20 19:00:00,72.1,68.0,29.86,East,90,0.0,-999.0,87,-99.99,,,0.00,Acu-Link.com,2013-08-20 23:00:00,
2013-08-20 19:15:00,71.8,68.0,29.86,East,90,0.0,-999.0,88,-99.99,,,0.00,Acu-Link.com,2013-08-20 23:15:00,
2013-08-20 19:31:00,71.4,67.7,29.87,SSE,157,0.0,-999.0,88,-99.99,,,0.00,Acu-Link.com,2013-08-20 23:31:00,
2013-08-20 19:46:00,70.9,67.5,29.88,SSE,157,0.0,-999.0,89,-99.99,,,0.00,Acu-Link.com,2013-08-20 23:46:00,
2013-08-20 20:01:00,70.5,67.1,29.89,ESE,112,0.0,-999.0,89,-99.99,,,0.00,Acu-Link.com,2013-08-21 00:01:00,
2013-08-20 20:17:00,69.8,66.4,29.88,ESE,112,0.0,-999.0,89,-99.99,,,0.00,Acu-Link.com,2013-08-21 00:17:00,
2013-08-20 20:32:00,69.6,66.2,29.89,ESE,112,0.0,-999.0,89,-99.99,,,0.00,Acu-Link.com,2013-08-21 00:32:00,
2013-08-20 20:47:00,69.1,66.0,29.88,East,90,0.0,-999.0,90,-99.99,,,0.00,Acu-Link.com,2013-08-21 00:47:00,
2013-08-20 21:02:00,68.5,65.4,29.89,East,90,0.0,-999.0,90,-99.99,,,0.00,Acu-Link.com,2013-08-21 01:02:00,
2013-08-20 21:18:00,68.2,65.1,29.89,East,90,0.0,-999.0,90,-99.99,,,0.00,Acu-Link.com,2013-08-21 01:18:00,
2013-08-20 21:33:00,67.8,64.8,29.90,SSE,157,0.0,-999.0,90,-99.99,,,0.00,Acu-Link.com,2013-08-21 01:33:00,
2013-08-20 21:48:00,67.8,64.8,29.89,SE,135,0.0,-999.0,90,-99.99,,,0.00,Acu-Link.com,2013-08-21 01:48:00,
2013-08-20 22:03:00,67.6,64.9,29.90,SE,135,0.0,-999.0,91,-99.99,,,0.00,Acu-Link.com,2013-08-21 02:03:00,
2013-08-20 22:19:00,67.3,64.6,29.91,SE,135,0.0,-999.0,91,-99.99,,,0.00,Acu-Link.com,2013-08-21 02:19:00,
2013-08-20 22:34:00,67.1,64.4,29.91,SE,135,0.0,-999.0,91,-99.99,,,0.00,Acu-Link.com,2013-08-21 02:34:00,
2013-08-20 22:49:00,66.7,64.0,29.91,SE,135,0.0,-999.0,91,-99.99,,,0.00,Acu-Link.com,2013-08-21 02:49:00,
2013-08-20 23:04:00,66.7,64.0,29.92,South,180,0.0,-999.0,91,-99.99,,,0.00,Acu-Link.com,2013-08-21 03:04:00,
2013-08-20 23:19:00,66.6,63.9,29.92,SSW,202,0.0,-999.0,91,-99.99,,,0.00,Acu-Link.com,2013-08-21 03:19:00,
2013-08-20 23:35:00,66.6,63.9,29.92,SSW,202,0.0,-999.0,91,-99.99,,,0.00,Acu-Link.com,2013-08-21 03:35:00,
2013-08-20 23:50:00,66.4,63.7,29.92,SSW,202,0.0,-999.0,91,-99.99,,,0.00,Acu-Link.com,2013-08-21 03:50:00,